Location: Noordwijk
(52.2400°N, 4.4500°E)
Time: 03:59:40
(UTC+00:00)

DOVE 4 - Visible Passes

Search period start: 27 February 2024 00:00
Search period end: 08 March 2024 00:00
Orbit: 583 x 781 km, 97.7° (Epoch: 26 February)

Date Brightness Start Highest point End Pass type
(mag) Time Alt. Az. Time Alt. Az. Time Alt. Az.
29 Feb ? 22:17:13 10° N 22:17:14 10° N 22:17:14 10° N visible
01 Mar ? 22:54:07 10° N 22:54:17 11° N 22:54:17 11° N visible
02 Mar ? 21:52:49 10° NNE 21:52:51 10° NNE 21:52:51 10° NNE visible
03 Mar ? 22:29:32 10° N 22:29:53 12° N 22:29:53 12° N visible
04 Mar ? 23:06:32 10° N 23:06:54 12° N 23:06:54 12° N visible
05 Mar ? 22:05:03 10° N 22:05:27 12° N 22:05:27 12° N visible
06 Mar ? 22:41:50 10° N 22:42:27 13° N 22:42:27 13° N visible
07 Mar ? 21:40:37 10° NNE 21:40:59 12° NNE 21:40:59 12° NNE visible
07 Mar ? 23:18:59 10° NNW 23:19:27 12° NNW 23:19:27 12° NNW visible
